Location: UFOWorks Observatory
(42.1050°N, 72.2350°W)
Time: 18:07:18
(UTC-05:00)

ISS - Visible Passes

Search period start: 08 February 2016 00:00
Search period end: 18 February 2016 00:00
Orbit: 399 x 408 km, 51.6° (Epoch: 08 February)

Date Brightness Start Highest point End Pass type
(mag) Time Alt. Az. Time Alt. Az. Time Alt. Az.
08 Feb -1.1 18:51:04 10° NW 18:53:11 16° N 18:53:30 16° N visible
09 Feb -1.2 17:57:57 10° WNW 18:00:18 18° NNW 18:02:40 10° NE visible
09 Feb -0.2 19:35:31 10° NNW 19:35:41 11° NNW 19:35:41 11° NNW visible
10 Feb -1.1 18:42:45 10° NW 18:44:46 15° N 18:45:12 15° NNE visible
11 Feb -1.1 17:49:46 10° NW 17:51:49 15° N 17:53:53 10° NE visible
11 Feb -0.6 19:26:38 10° NW 19:27:21 14° NNW 19:27:21 14° NNW visible
12 Feb -1.4 18:34:01 10° NNW 18:36:15 17° N 18:36:52 16° NNE visible
13 Feb -1.2 19:17:33 10° NW 19:19:02 21° NNW 19:19:02 21° NNW visible
14 Feb -1.7 18:24:57 10° NW 18:27:36 22° NNE 18:28:36 19° NE visible
14 Feb 0.1 20:01:06 10° WNW 20:01:15 11° WNW 20:01:15 11° WNW visible
15 Feb -2.5 19:08:23 10° NW 19:10:52 43° NNW 19:10:52 43° NNW visible
16 Feb -2.5 18:15:44 10° NW 18:18:46 34° NNE 18:20:34 19° E visible
16 Feb -0.4 19:52:14 10° WNW 19:53:13 17° W 19:53:13 17° W visible
17 Feb -3.1 18:59:17 10° WNW 19:02:30 65° SW 19:03:01 53° SSE visible
